Content
SEND FEEDBACK

Daily
Averages
Monthly
Summary
United States of America

DAYVILLE, OREGON


Home > North America > United States > Oregon
Elevation: 2404 feet     Latitude: 44 28N     Longitude: 119 32W

WEATHER
 
SELECT A DAY
Number of Records: 183,309;   Date Range: 11/29/06 - 9/21/14
 
SHARE

PRINT THIS DATA

[ ← Previous Day ]
WEATHER ALMANAC - FEBRUARY 13, 2013
[ Next Day → ]
[ °C ]   °F
Weather ElementAverageHighLow
Temperature37.5 °F44.6 °F (2:35 pm)32 °F (4:35 am)
Dewpoint30.7 °F33.8 °F (11:35 am)26.6 °F (3:35 pm)
Humidity77.7 %100 % (5:55 am)49 % (3:35 pm)
Barometer30.33 in30.38 in (11:15 pm)30.31 in (1:35 pm)
Wind Speed5.2 mph18.4 mph (2:15 pm)
Wind Gust24.2 mph (2:35 pm)
Weather ElementAverage
Visibility10 mi
Wind DirectionSSE (149 °)

Weather ElementTotal
Precipitation---
Heating Degree Days26.7 (Base 65)
Averaged from 71 records on February 13, 2013
WEATHER CONDITIONS BREAKOUT
WIND DIRECTION BREAKOUT
WEATHER BY HOUR - FEBRUARY 13, 2013
[ °C ]   °F
Local TimeTemperatureDewpointHumidityBarometerVisibilityWind DirectionWind SpeedGust SpeedPrecipitationEventsConditions
12:35 AM33.8 °F30.2 °F87 %30.34 in10.0 miSE (140°)6.9 mphMostly Cloudy
12:55 AM33.8 °F30.2 °F87 %30.34 in10.0 miCalmScattered Clouds
1:15 AM35.6 °F32.0 °F87 %30.34 in10.0 miSE (140°)10.4 mphMostly Cloudy
1:35 AM33.8 °F32.0 °F93 %30.34 in10.0 miESE (110°)5.8 mphOvercast
1:55 AM33.8 °F30.2 °F87 %30.34 in10.0 miESE (110°)6.9 mphOvercast
2:15 AM33.8 °F32.0 °F93 %30.34 in10.0 miESE (120°)8.1 mphOvercast
2:35 AM33.8 °F32.0 °F93 %30.34 in10.0 miSE (140°)6.9 mphOvercast
2:55 AM35.6 °F30.2 °F81 %30.32 in10.0 miESE (120°)6.9 mphOvercast
3:15 AM35.6 °F30.2 °F81 %30.33 in10.0 miSSE (150°)10.4 mphOvercast
3:35 AM33.8 °F32.0 °F93 %30.33 in10.0 miSE (140°)6.9 mphOvercast
3:55 AM33.8 °F30.2 °F87 %30.32 in10.0 miCalmMostly Cloudy
4:15 AM33.8 °F30.2 °F87 %30.33 in10.0 miCalmMostly Cloudy
4:35 AM32.0 °F30.2 °F93 %30.32 in10.0 miSE (130°)3.5 mphScattered Clouds
4:55 AM32.0 °F30.2 °F93 %30.32 in10.0 miEast (90°)3.5 mphClear
5:15 AM32.0 °F30.2 °F93 %30.33 in10.0 miEast (90°)5.8 mphClear
5:35 AM32.0 °F30.2 °F93 %30.32 in10.0 miEast (100°)4.6 mphClear
5:55 AM32.0 °F32.0 °F100 %30.32 in10.0 miCalmClear
6:15 AM32.0 °F30.2 °F93 %30.32 in10.0 miCalmClear
6:35 AM32.0 °F30.2 °F93 %30.32 in10.0 miWest (270°)3.5 mphClear
6:55 AM32.0 °F30.2 °F93 %30.33 in10.0 miCalmClear
7:15 AM32.0 °F30.2 °F93 %30.33 in10.0 miCalmClear
7:35 AM32.0 °F30.2 °F93 %30.34 in10.0 miCalmClear
7:55 AM32.0 °F32.0 °F100 %30.33 in10.0 miWSW (240°)3.5 mphClear
8:15 AM32.0 °F30.2 °F93 %30.33 in10.0 miCalmScattered Clouds
8:35 AM32.0 °F32.0 °F100 %30.33 in10.0 miCalmMostly Cloudy
8:55 AM33.8 °F32.0 °F93 %30.32 in10.0 miCalmScattered Clouds
9:15 AM35.6 °F32.0 °F87 %30.34 in10.0 miCalmMostly Cloudy
9:35 AM35.6 °F32.0 °F87 %30.34 in10.0 miWest (260°)4.6 mphOvercast
9:55 AM35.6 °F32.0 °F87 %30.34 in10.0 miWSW (250°)5.8 mphOvercast
10:15 AM37.4 °F32.0 °F81 %30.35 in10.0 miNW (320°)3.5 mphScattered Clouds
10:35 AM39.2 °F32.0 °F75 %30.35 in10.0 miCalmMostly Cloudy
10:55 AM41.0 °F32.0 °F70 %30.34 in10.0 miCalmMostly Cloudy
11:15 AM41.0 °F32.0 °F70 %30.34 in10.0 miWest (280°)5.8 mphMostly Cloudy
11:35 AM42.8 °F33.8 °F70 %30.34 in10.0 miWest (280°)5.8 mphScattered Clouds
11:55 AM42.8 °F32.0 °F66 %30.34 in10.0 miWest (270°)9.2 mphScattered Clouds
12:15 PM42.8 °F32.0 °F66 %30.32 in10.0 miWest (270°)15.0 mphMostly Cloudy
12:35 PM42.8 °F32.0 °F66 %30.32 in10.0 miWest (260°)16.1 mphOvercast
12:55 PM42.8 °F32.0 °F66 %30.32 in10.0 miWSW (250°)10.4 mphOvercast
1:15 PM42.8 °F32.0 °F66 %30.32 in10.0 miWest (270°)11.5 mphMostly Cloudy
1:35 PM42.8 °F32.0 °F66 %30.31 in10.0 miWest (260°)17.3 mph20.7 mphClear
1:55 PM42.8 °F32.0 °F66 %30.31 in10.0 miWest (270°)15.0 mphClear
2:15 PM42.8 °F32.0 °F66 %30.31 in10.0 miWest (270°)18.4 mphScattered Clouds
2:35 PM44.6 °F32.0 °F61 %30.32 in10.0 miWest (270°)15.0 mph24.2 mphMostly Cloudy
2:55 PM44.6 °F30.2 °F57 %30.32 in10.0 miNW (320°)10.4 mphOvercast
3:15 PM44.6 °F28.4 °F53 %30.32 in10.0 miWest (280°)10.4 mph17.3 mphOvercast
3:35 PM44.6 °F26.6 °F49 %30.32 in10.0 miWest (280°)15.0 mph19.6 mphOvercast
3:55 PM42.8 °F28.4 °F57 %30.32 in10.0 miWest (260°)10.4 mphOvercast
4:15 PM42.8 °F28.4 °F57 %30.31 in10.0 miWest (260°)8.1 mphOvercast
4:35 PM42.8 °F30.2 °F61 %30.31 in10.0 miWSW (240°)6.9 mphOvercast
4:55 PM42.8 °F28.4 °F57 %30.31 in10.0 miWest (260°)10.4 mphMostly Cloudy
5:15 PM41.0 °F28.4 °F61 %30.32 in10.0 miWest (270°)8.1 mphMostly Cloudy
5:35 PM41.0 °F28.4 °F61 %30.32 in10.0 miWest (280°)5.8 mphOvercast
5:55 PM41.0 °F28.4 °F61 %30.32 in10.0 miWest (280°)5.8 mphOvercast
6:15 PM39.2 °F28.4 °F65 %30.32 in10.0 miWest (270°)3.5 mphOvercast
6:35 PM39.2 °F28.4 °F65 %30.32 in10.0 miCalmOvercast
6:55 PM39.2 °F30.2 °F70 %30.32 in10.0 miSSW (200°)3.5 mphOvercast
7:15 PM39.2 °F30.2 °F70 %30.32 in10.0 miSSW (210°)3.5 mphOvercast
7:35 PM39.2 °F30.2 °F70 %30.32 in10.0 miWSW (250°)3.5 mphOvercast
7:55 PM39.2 °F30.2 °F70 %30.32 in10.0 miWSW (250°)4.6 mphOvercast
8:15 PM37.4 °F30.2 °F75 %30.34 in10.0 miCalmOvercast
8:35 PM37.4 °F30.2 °F75 %30.34 in10.0 miWNW (290°)3.5 mphOvercast
8:55 PM37.4 °F30.2 °F75 %30.35 in10.0 miWNW (290°)3.5 mphOvercast
9:15 PM37.4 °F30.2 °F75 %30.35 in10.0 miCalmMostly Cloudy
9:35 PM37.4 °F30.2 °F75 %30.36 in10.0 miCalmMostly Cloudy
9:55 PM37.4 °F30.2 °F75 %30.37 in10.0 miCalmMostly Cloudy
10:15 PM37.4 °F30.2 °F75 %30.37 in10.0 miCalmOvercast
10:35 PM37.4 °F30.2 °F75 %30.36 in10.0 miSW (220°)4.6 mphMostly Cloudy
10:55 PM35.6 °F30.2 °F81 %30.37 in10.0 miCalmMostly Cloudy
11:15 PM35.6 °F32.0 °F87 %30.38 in10.0 miCalmOvercast
11:35 PM35.6 °F32.0 °F87 %30.38 in10.0 miCalmOvercast
11:55 PM37.4 °F32.0 °F81 %30.38 in10.0 miCalmOvercast
Hourly data recorded from KGCD, located miles away from Dayville, Oregon







STORIES FROM OUR PARTNERS